sat.trackr.live / text

‹ back to catalog

STARLINK-30917

NORAD 58419 · 2023-180T

PAYLOAD ACTIVE UNKNOWN

§ Identity

Operator
Country
US
Launch date
2023-11-22
Launch site
AFETR
Launch vehicle
Mass (kg)
RCS (m²)

Purposes: comms

External: N2YO · Heavens-Above · Gunter

§ Orbital elements

Epoch: 2026-05-24T15:33:34.060896Z

Period
94.27 min
Inclination
43.0048°
Eccentricity
0.0001800
Mean motion
15.27570554 rev/d
Perigee alt
481.8 km
Apogee alt
484.3 km
Semi-major
6,861.2 km
B*
4.3018e-5
RAAN
234.7876°
Arg perigee
277.6219°
Mean anomaly
82.4428°
Rev number
14,051

§ Raw data

STARLINK-309171 58419U 23180T   26144.64831089  .00000921  00000+0  43018-4 0  99982 58419  43.0048 234.7876 0001800 277.6219  82.4428 15.27570554140518

JSON: /api/v1/satellites/58419 · /tle

For live sub-satellite position, see the globe view (requires WebGL).

§ Visibility from observer

Set your observer location to see the next 7 days of passes ≥ 10°. The values pass through the URL so the page stays shareable.

No JS? Fill the form by hand. The geolocation button needs JavaScript.